W9ESR Weather Reports


time (UTC)temp
C
wind
direction
speed
KPH
gust
KPH
rain 1hr
cm
rain 24hr
cm
rain mn
cm
humidity
%
barometer
mb
20260507130723 8 221 22.5 25.7 0.00 0.00 0.00 76
20260507130221 8 224 11.3 20.9 0.00 0.00 0.00 77
20260507125720 8 216 9.7 16.1 0.00 0.00 0.00 78
20260507125217 8 227 12.9 16.1 0.00 0.00 0.00 79
20260507124713 8 218 12.9 20.9 0.00 0.00 0.00 79
20260507124210 7 223 11.3 14.5 0.00 0.00 0.00 80
20260507123709 7 212 8.0 16.1 0.00 0.00 0.00 80
20260507123206 7 213 16.1 20.9 0.00 0.00 0.00 80
20260507122701 7 188 9.7 17.7 0.00 0.00 0.00 81
20260507122157 7 209 11.3 12.9 0.00 0.00 0.00 82
20260507121653 7 228 9.7 20.9 0.00 0.00 0.00 82
20260507121149 7 214 12.9 16.1 0.00 0.00 0.00 82
20260507120645 7 229 8.0 14.5 0.00 0.00 0.00 83
20260507120142 6 224 9.7 17.7 0.00 0.00 0.00 83
20260507115638 6 232 14.5 16.1 0.00 0.00 0.00 83
20260507115134 6 231 17.7 20.9 0.00 0.00 0.00 83
20260507114630 6 206 14.5 17.7 0.00 0.00 0.00 84
20260507114127 6 222 11.3 16.1 0.00 0.00 0.00 85
20260507113625 6 223 9.7 17.7 0.00 0.00 0.00 85
20260507113122 6 218 9.7 20.9 0.00 0.00 0.00 85
20260507112620 6 213 9.7 16.1 0.00 0.00 0.00 85
20260507112116 6 227 19.3 24.1 0.00 0.00 0.00 85
20260507111613 6 241 14.5 16.1 0.00 0.00 0.00 85
20260507111110 6 226 11.3 20.9 0.00 0.00 0.00 85
20260507110606 6 202 14.5 17.7 0.00 0.00 0.00 85
20260507105600 6 206 8.0 17.7 0.00 0.00 0.00 84
20260507105055 6 211 6.4 20.9 0.00 0.00 0.00 84
20260507104553 6 215 16.1 22.5 0.00 0.00 0.00 84
20260507104049 6 231 16.1 17.7 0.00 0.00 0.00 84
20260507103546 6 197 12.9 20.9 0.00 0.00 0.00 84
20260507103043 6 239 11.3 20.9 0.00 0.00 0.00 84
20260507102539 6 237 16.1 17.7 0.00 0.00 0.00 84
20260507102035 6 218 17.7 22.5 0.00 0.00 0.00 83
20260507101531 6 219 16.1 20.9 0.00 0.00 0.00 83
20260507101027 6 227 12.9 20.9 0.00 0.00 0.00 83
20260507100525 6 229 11.3 17.7 0.00 0.00 0.00 83
20260507100023 6 220 12.9 16.1 0.00 0.00 0.00 83
20260507095520 6 214 11.3 16.1 0.00 0.00 0.00 83
20260507095017 6 221 11.3 16.1 0.00 0.00 0.00 82
20260507094513 6 234 8.0 16.1 0.00 0.00 0.00 82
20260507094010 6 238 11.3 16.1 0.00 0.00 0.00 81
20260507093508 6 216 8.0 12.9 0.00 0.00 0.00 81
20260507093006 7 249 11.3 17.7 0.00 0.00 0.00 81
20260507092502 7 216 16.1 17.7 0.00 0.00 0.00 80
20260507091959 7 228 9.7 17.7 0.00 0.00 0.00 80
20260507091455 7 220 14.5 16.1 0.00 0.00 0.00 79
20260507090951 7 230 14.5 16.1 0.00 0.00 0.00 78
20260507090447 7 226 9.7 17.7 0.00 0.00 0.00 78
20260507085944 7 221 11.3 16.1 0.00 0.00 0.00 78
20260507085442 7 219 11.3 17.7 0.00 0.00 0.00 78
20260507084938 7 242 14.5 16.1 0.00 0.00 0.00 79
20260507084435 7 228 9.7 16.1 0.00 0.00 0.00 79
20260507083932 7 229 11.3 17.7 0.00 0.00 0.00 78
20260507083429 7 212 9.7 16.1 0.00 0.00 0.00 78
20260507082925 7 228 14.5 20.9 0.00 0.00 0.00 78
20260507082421 7 204 12.9 16.1 0.00 0.00 0.00 78
20260507081918 7 238 9.7 17.7 0.00 0.00 0.00 77
20260507081414 7 214 11.3 16.1 0.00 0.00 0.00 77
20260507080911 7 242 16.1 17.7 0.00 0.00 0.00 77
20260507080407 7 234 12.9 16.1 0.00 0.00 0.00 76
20260507075902 7 204 11.3 14.5 0.00 0.00 0.00 76
20260507075359 7 246 8.0 16.1 0.00 0.00 0.00 75
20260507074855 7 220 9.7 14.5 0.00 0.00 0.00 74
20260507074353 7 231 12.9 16.1 0.00 0.00 0.00 74
20260507073850 7 200 8.0 14.5 0.00 0.00 0.00 73
20260507073346 7 235 11.3 12.9 0.00 0.00 0.00 73
20260507072844 8 235 11.3 16.1 0.00 0.00 0.00 72
20260507072341 8 221 9.7 16.1 0.00 0.00 0.00 72
20260507071838 8 221 8.0 14.5 0.00 0.00 0.00 71
20260507071335 8 215 14.5 16.1 0.00 0.00 0.00 70
20260507070831 8 232 12.9 17.7 0.00 0.00 0.00 70
20260507070329 8 242 11.3 17.7 0.00 0.00 0.00 69
20260507065825 8 228 11.3 12.9 0.00 0.00 0.00 69
20260507065322 8 222 14.5 16.1 0.00 0.00 0.00 68
20260507064820 8 251 11.3 16.1 0.00 0.00 0.00 67
20260507064318 8 209 9.7 16.1 0.00 0.00 0.00 66
20260507063816 8 232 9.7 12.9 0.00 0.00 0.00 66
20260507063312 8 245 9.7 16.1 0.00 0.00 0.00 65
20260507062809 8 231 12.9 14.5 0.00 0.00 0.00 64
20260507062306 8 207 12.9 16.1 0.00 0.00 0.00 63
20260507061804 8 252 8.0 14.5 0.00 0.00 0.00 62
20260507061302 8 215 12.9 17.7 0.00 0.00 0.00 61
20260507060800 8 247 12.9 17.7 0.00 0.00 0.00 61
20260507060256 8 193 9.7 16.1 0.00 0.00 0.00 60
20260507055752 8 250 8.0 14.5 0.00 0.00 0.00 59
20260507055248 8 226 11.3 16.1 0.00 0.00 0.00 58
20260507054744 8 236 12.9 14.5 0.00 0.00 0.00 57
20260507054241 8 235 11.3 14.5 0.00 0.00 0.00 57
20260507053739 8 210 11.3 14.5 0.00 0.00 0.00 56
20260507053236 8 212 11.3 16.1 0.00 0.00 0.00 55
20260507052735 8 240 11.3 16.1 0.00 0.00 0.00 54
20260507052231 8 228 8.0 16.1 0.00 0.00 0.00 53
20260507051729 8 194 9.7 14.5 0.00 0.00 0.00 51
20260507051225 9 242 12.9 14.5 0.00 0.00 0.00 51
20260507050722 9 217 9.7 12.9 0.00 0.00 0.00 50
20260507050220 10 218 9.7 16.1 0.00 0.00 0.00 49
20260507045716 10 226 12.9 14.5 0.00 0.00 0.00 47
20260507045212 10 220 11.3 17.7 0.00 0.00 0.00 48
20260507044709 10 234 9.7 12.9 0.00 0.00 0.00 47
20260507044206 10 201 11.3 14.5 0.00 0.00 0.00 47
20260507043702 10 214 9.7 12.9 0.00 0.00 0.00 45
20260507043159 10 203 6.4 11.3 0.00 0.00 0.00 45
20260507042656 10 214 6.4 6.4 0.00 0.00 0.00 44
20260507042150 10 218 6.4 9.7 0.00 0.00 0.00 43
20260507041648 10 216 6.4 9.7 0.00 0.00 0.00 42
20260507041144 10 215 6.4 9.7 0.00 0.00 0.00 42
20260507040641 10 212 6.4 12.9 0.00 0.00 0.00 43
20260507040138 10 213 4.8 11.3 0.00 0.00 0.00 42
20260507035634 10 239 6.4 11.3 0.00 0.00 0.00 42
20260507035130 10 217 8.0 11.3 0.00 0.00 0.00 42
20260507034627 10 218 8.0 11.3 0.00 0.00 0.00 42
20260507034124 10 207 9.7 12.9 0.00 0.00 0.00 41
20260507033623 10 211 6.4 9.7 0.00 0.00 0.00 41
20260507033119 10 193 6.4 6.4 0.00 0.00 0.00 40
20260507032617 10 201 6.4 6.4 0.00 0.00 0.00 41
20260507032113 10 212 4.8 6.4 0.00 0.00 0.00 41
20260507031609 11 204 6.4 6.4 0.00 0.00 0.00 40
20260507031106 11 199 4.8 4.8 0.00 0.00 0.00 39
20260507030603 11 202 3.2 4.8 0.00 0.00 0.00 40
20260507030101 11 206 4.8 4.8 0.00 0.00 0.00 39
20260507025558 11 204 3.2 4.8 0.00 0.00 0.00 39
20260507025055 11 202 3.2 4.8 0.00 0.00 0.00 39
20260507024553 11 207 4.8 4.8 0.00 0.00 0.00 39
20260507024049 11 208 3.2 4.8 0.00 0.00 0.00 39
20260507023545 11 203 4.8 4.8 0.00 0.00 0.00 39
20260507023043 11 207 3.2 4.8 0.00 0.00 0.00 39
20260507022539 11 197 3.2 4.8 0.00 0.00 0.00 39
20260507022035 11 206 3.2 3.2 0.00 0.00 0.00 38
20260507021531 12 201 3.2 3.2 0.00 0.00 0.00 37
20260507021028 12 207 1.6 3.2 0.00 0.00 0.00 37
20260507020525 12 210 3.2 3.2 0.00 0.00 0.00 37
20260507020021 12 212 3.2 3.2 0.00 0.00 0.00 37
20260507015520 12 217 3.2 3.2 0.00 0.00 0.00 37
20260507015017 12 235 3.2 3.2 0.00 0.00 0.00 37
20260507014513 12 219 3.2 3.2 0.00 0.00 0.00 36
20260507014009 12 219 3.2 3.2 0.00 0.00 0.00 36
20260507013506 13 231 3.2 4.8 0.00 0.00 0.00 35
20260507013004 13 225 3.2 6.4 0.00 0.00 0.00 34
20260507012500 13 214 3.2 3.2 0.00 0.00 0.00 34
20260507011957 13 203 0.0 1.6 0.00 0.00 0.00 34
20260507011454 13 219 1.6 3.2 0.00 0.00 0.00 34
20260507010950 13 231 1.6 4.8 0.00 0.00 0.00 34
20260507010444 13 249 3.2 6.4 0.00 0.00 0.00 34
20260507005941 14 290 3.2 6.4 0.00 0.00 0.00 33
20260507005439 14 241 3.2 4.8 0.00 0.00 0.00 33
20260507004935 14 232 3.2 4.8 0.00 0.00 0.00 33
20260507004432 14 243 3.2 6.4 0.00 0.00 0.00 32
20260507003929 14 249 4.8 11.3 0.00 0.00 0.00 31
20260507003424 14 257 3.2 9.7 0.00 0.00 0.00 31
20260507002920 14 253 8.0 9.7 0.00 0.00 0.00 31
20260507002416 14 259 4.8 11.3 0.00 0.00 0.00 32
20260507001914 14 319 8.0 11.3 0.00 0.00 0.00 31
20260507001410 15 266 1.6 9.7 0.00 0.00 0.00 31
20260507000908 15 287 4.8 11.3 0.00 0.00 0.00 30
20260507000405 15 293 9.7 14.5 0.00 0.00 0.00 30
20260506235859 15 252 4.8 11.3 0.00 0.00 0.00 32
20260506235356 14 281 9.7 12.9 0.00 0.00 0.00 31
20260506234852 14 265 8.0 11.3 0.00 0.00 0.00 31
20260506234350 15 307 11.3 14.5 0.00 0.00 0.00 30
20260506233847 15 231 8.0 16.1 0.00 0.00 0.00 30
20260506233343 15 272 16.1 22.5 0.00 0.00 0.00 30
20260506232840 15 226 12.9 27.4 0.00 0.00 0.00 29
20260506232336 15 259 14.5 16.1 0.00 0.00 0.00 28
20260506231832 15 269 3.2 4.8 0.00 0.00 0.00 30
20260506231330 14 233 3.2 12.9 0.00 0.00 0.00 30
20260506230827 15 278 3.2 4.8 0.00 0.00 0.00 31
20260506230324 14 257 8.0 12.9 0.00 0.00 0.00 30
20260506225820 15 237 6.4 9.7 0.00 0.00 0.00 31
20260506225318 14 281 6.4 9.7 0.00 0.00 0.00 31
20260506224814 14 266 14.5 20.9 0.00 0.00 0.00 30
20260506224312 15 276 11.3 14.5 0.00 0.00 0.00 30
20260506223808 14 231 11.3 17.7 0.00 0.00 0.00 30
20260506223303 15 276 14.5 17.7 0.00 0.00 0.00 29
20260506222800 15 349 9.7 12.9 0.00 0.00 0.00 28
20260506222256 15 294 4.8 16.1 0.00 0.00 0.00 28
20260506221754 15 262 3.2 12.9 0.00 0.00 0.00 30
20260506221252 14 321 8.0 11.3 0.00 0.00 0.00 31
20260506220749 15 293 6.4 12.9 0.00 0.00 0.00 31
20260506220243 15 334 11.3 16.1 0.00 0.00 0.00 30
20260506215741 15 266 16.1 25.7 0.00 0.00 0.00 29
20260506215237 15 7 12.9 17.7 0.00 0.00 0.00 30
20260506214733 15 264 6.4 17.7 0.00 0.00 0.00 29
20260506214230 14 305 6.4 17.7 0.00 0.00 0.00 30
20260506213728 14 33 4.8 9.7 0.00 0.00 0.00 30
20260506213225 14 262 12.9 22.5 0.00 0.00 0.00 30
20260506212723 14 346 8.0 16.1 0.00 0.00 0.00 30
20260506212218 14 0 12.9 20.9 0.00 0.00 0.00 30
20260506211714 14 282 9.7 12.9 0.00 0.00 0.00 30
20260506211210 15 276 22.5 30.6 0.00 0.00 0.00 30
20260506210707 15 301 12.9 22.5 0.00 0.00 0.00 30
20260506210204 15 265 12.9 29.0 0.00 0.00 0.00 30
20260506205701 14 316 11.3 16.1 0.00 0.00 0.00 30
20260506205156 13 270 3.2 9.7 0.00 0.00 0.00 32
20260506204654 13 266 3.2 14.5 0.00 0.00 0.00 32
20260506204150 13 288 11.3 14.5 0.00 0.00 0.00 31
20260506203649 13 303 6.4 11.3 0.00 0.00 0.00 31
20260506203145 13 350 11.3 17.7 0.00 0.00 0.00 31
20260506202644 14 311 12.9 16.1 0.00 0.00 0.00 30
20260506202139 14 23 6.4 20.9 0.00 0.00 0.00 30
20260506201636 14 274 9.7 20.9 0.00 0.00 0.00 32
20260506201133 14 280 12.9 16.1 0.00 0.00 0.00 31
20260506200629 15 315 14.5 16.1 0.00 0.00 0.00 31
20260506200126 13 261 9.7 12.9 0.00 0.00 0.00 32
20260506195623 13 253 12.9 14.5 0.00 0.00 0.00 32
20260506195119 13 234 6.4 14.5 0.00 0.00 0.00 31
20260506194617 13 279 4.8 16.1 0.00 0.00 0.00 33
20260506194113 14 290 14.5 17.7 0.00 0.00 0.00 31
20260506193611 14 284 14.5 27.4 0.00 0.00 0.00 31
20260506193108 15 309 24.1 33.8 0.00 0.00 0.00 30
20260506192605 14 243 3.2 14.5 0.00 0.00 0.00 31
20260506192100 13 279 19.3 22.5 0.00 0.00 0.00 31
20260506191557 13 264 12.9 17.7 0.00 0.00 0.00 31
20260506191053 13 358 11.3 25.7 0.00 0.00 0.00 31
20260506190550 13 284 11.3 12.9 0.00 0.00 0.00 32
20260506190048 13 289 14.5 20.9 0.00 0.00 0.00 32
20260506185545 13 258 8.0 25.7 0.00 0.00 0.00 33
20260506185041 13 287 12.9 24.1 0.00 0.00 0.00 33
20260506184539 13 235 9.7 24.1 0.00 0.00 0.00 33
20260506184036 13 264 22.5 35.4 0.00 0.00 0.00 32
20260506183531 13 266 16.1 22.5 0.00 0.00 0.00 33
20260506183028 12 301 12.9 14.5 0.00 0.00 0.00 33
20260506182526 13 336 9.7 14.5 0.00 0.00 0.00 33
20260506182023 12 287 6.4 16.1 0.00 0.00 0.00 33
20260506181521 12 8 14.5 22.5 0.00 0.00 0.00 32
20260506181017 12 251 12.9 16.1 0.00 0.00 0.00 35
20260506180514 12 323 8.0 16.1 0.00 0.00 0.00 32
20260506180011 13 22 12.9 16.1 0.00 0.00 0.00 32
20260506175507 13 354 4.8 9.7 0.00 0.00 0.00 33
20260506175003 12 227 6.4 16.1 0.00 0.00 0.00 33
20260506174502 12 270 9.7 16.1 0.00 0.00 0.00 34
20260506173958 12 306 9.7 12.9 0.00 0.00 0.00 33
20260506173456 13 235 8.0 16.1 0.00 0.00 0.00 34
20260506172952 12 293 9.7 16.1 0.00 0.00 0.00 35
20260506172450 12 256 17.7 25.7 0.00 0.00 0.00 33
20260506171946 12 231 14.5 20.9 0.00 0.00 0.00 34
20260506171443 12 303 14.5 25.7 0.00 0.00 0.00 33
20260506170941 11 262 8.0 22.5 0.00 0.00 0.00 37
20260506170438 11 250 16.1 17.7 0.00 0.00 0.00 35
20260506165936 12 342 17.7 20.9 0.00 0.00 0.00 34
20260506165434 11 203 1.6 11.3 0.00 0.00 0.00 36
20260506164930 12 343 19.3 27.4 0.00 0.00 0.00 33
20260506164427 11 298 12.9 17.7 0.00 0.00 0.00 34
20260506163926 11 265 14.5 25.7 0.00 0.00 0.00 34
20260506163425 11 212 4.8 6.4 0.00 0.00 0.00 36
20260506162920 11 261 1.6 14.5 0.00 0.00 0.00 37
20260506162419 10 167 3.2 9.7 0.00 0.00 0.00 36
20260506161916 11 329 11.3 17.7 0.00 0.00 0.00 35
20260506161414 11 54 1.6 9.7 0.00 0.00 0.00 36
20260506160911 11 352 16.1 24.1 0.00 0.00 0.00 36
20260506160408 11 293 8.0 9.7 0.00 0.00 0.00 35
20260506155906 11 357 14.5 17.7 0.00 0.00 0.00 36
20260506155402 10 297 12.9 16.1 0.00 0.00 0.00 37
20260506153519 10 14 12.9 14.5 0.00 0.00 0.00 38
20260506153017 11 255 6.4 16.1 0.00 0.00 0.00 38
20260506152513 10 282 4.8 14.5 0.00 0.00 0.00 40
20260506152012 10 271 6.4 6.4 0.00 0.00 0.00 39
20260506151509 10 290 11.3 16.1 0.00 0.00 0.00 40
20260506151006 10 33 1.6 3.2 0.00 0.00 0.00 40
20260506150502 10 351 4.8 6.4 0.00 0.00 0.00 40
20260506145959 10 15 9.7 12.9 0.00 0.00 0.00 39
20260506145455 10 310 3.2 6.4 0.00 0.00 0.00 40
20260506144953 10 292 1.6 6.4 0.00 0.00 0.00 42
20260506144450 9 17 1.6 6.4 0.00 0.00 0.00 41
20260506143948 9 326 4.8 4.8 0.00 0.00 0.00 40
20260506143444 10 24 3.2 4.8 0.00 0.00 0.00 41
20260506142943 9 95 1.6 4.8 0.00 0.00 0.00 43
20260506142441 9 269 0.0 1.6 0.00 0.00 0.00 43
20260506141939 9 109 0.0 1.6 0.00 0.00 0.00 43
20260506141436 8 29 1.6 6.4 0.00 0.00 0.00 44
20260506140935 8 11 3.2 6.4 0.00 0.00 0.00 44
20260506140431 8 26 0.0 4.8 0.00 0.00 0.00 44
20260506135928 8 44 1.6 1.6 0.00 0.00 0.00 43
20260506135425 8 35 1.6 4.8 0.00 0.00 0.00 45
20260506134921 8 11 0.0 6.4 0.00 0.00 0.00 46
20260506134417 8 23 1.6 6.4 0.00 0.00 0.00 47
20260506133915 7 307 1.6 4.8 0.00 0.00 0.00 50
20260506133411 7 3 3.2 4.8 0.00 0.00 0.00 50
20260506132908 7 10 1.6 3.2 0.00 0.00 0.00 49
20260506132405 7 8 4.8 6.4 0.00 0.00 0.00 52
20260506131903 6 9 4.8 6.4 0.00 0.00 0.00 52
20260506131359 6 4 6.4 9.7 0.00 0.00 0.00 52